| time (UTC) | temp F | wind direction | speed MPH | gust MPH | rain 1hr in | rain 24hr in | rain mn in | humidity % | barometer mb |
| 20260504005525 | 66 | 67 | 2.0 | 6.0 | 0.00 | 0.02 | 0.02 | 38 | 1007.7 |
| 20260504005025 | 66 | 67 | 2.0 | 9.0 | 0.00 | 0.02 | 0.02 | 39 | 1007.7 |
| 20260504004545 | 67 | 69 | 2.0 | 9.0 | 0.00 | 0.02 | 0.02 | 40 | 1007.8 |
| 20260504004024 | 67 | 103 | 3.0 | 11.0 | 0.00 | 0.02 | 0.02 | 36 | 1007.8 |
| 20260504003527 | 67 | 113 | 4.0 | 11.0 | 0.00 | 0.02 | 0.02 | 34 | 1007.8 |
| 20260504003038 | 68 | 95 | 4.0 | 10.0 | 0.00 | 0.02 | 0.02 | 37 | 1007.9 |
| 20260504002524 | 68 | 65 | 4.0 | 11.0 | 0.00 | 0.02 | 0.02 | 34 | 1008.0 |
| 20260504002027 | 68 | 68 | 3.0 | 11.0 | 0.00 | 0.02 | 0.02 | 35 | 1008.1 |
| 20260504001546 | 68 | 87 | 5.0 | 11.0 | 0.00 | 0.02 | 0.02 | 34 | 1008.1 |
| 20260504001024 | 68 | 92 | 6.0 | 12.0 | 0.00 | 0.02 | 0.02 | 32 | 1008.2 |
| 20260504000523 | 68 | 63 | 7.0 | 14.0 | 0.00 | 0.02 | 0.02 | 37 | 1008.1 |
| 20260504000038 | 68 | 98 | 5.0 | 15.0 | 0.00 | 0.02 | 0.02 | 37 | 1008.3 |
| 20260503235525 | 68 | 63 | 8.0 | 15.0 | 0.00 | 0.02 | 0.02 | 38 | 1008.3 |
| 20260503235027 | 68 | 67 | 5.0 | 14.0 | 0.00 | 0.02 | 0.02 | 35 | 1008.2 |
| 20260503234541 | 68 | 76 | 5.0 | 15.0 | 0.00 | 0.02 | 0.02 | 37 | 1008.4 |
| 20260503234025 | 68 | 107 | 6.0 | 15.0 | 0.00 | 0.02 | 0.02 | 36 | 1008.3 |
| 20260503233525 | 68 | 104 | 6.0 | 15.0 | 0.00 | 0.02 | 0.02 | 39 | 1008.4 |
| 20260503233042 | 69 | 57 | 8.0 | 14.0 | 0.00 | 0.02 | 0.02 | 40 | 1008.4 |
| 20260503232526 | 69 | 78 | 6.0 | 11.0 | 0.00 | 0.02 | 0.02 | 39 | 1008.4 |
| 20260503232024 | 68 | 104 | 5.0 | 12.0 | 0.00 | 0.02 | 0.02 | 40 | 1008.5 |
| 20260503231539 | 68 | 57 | 8.0 | 16.0 | 0.00 | 0.02 | 0.02 | 40 | 1008.6 |
| 20260503231025 | 68 | 103 | 9.0 | 16.0 | 0.00 | 0.02 | 0.02 | 41 | 1008.6 |
| 20260503230525 | 68 | 113 | 8.0 | 14.0 | 0.00 | 0.02 | 0.02 | 40 | 1008.6 |
| 20260503230038 | 68 | 63 | 8.0 | 14.0 | 0.00 | 0.02 | 0.02 | 43 | 1008.5 |
| 20260503225525 | 68 | 109 | 6.0 | 13.0 | 0.00 | 0.02 | 0.02 | 43 | 1008.6 |
| 20260503225024 | 68 | 64 | 6.0 | 16.0 | 0.00 | 0.02 | 0.02 | 43 | 1008.6 |
| 20260503224538 | 68 | 103 | 5.0 | 16.0 | 0.00 | 0.02 | 0.02 | 43 | 1008.7 |
| 20260503224027 | 68 | 80 | 8.0 | 16.0 | 0.00 | 0.02 | 0.02 | 43 | 1008.7 |
| 20260503223528 | 68 | 77 | 3.0 | 10.0 | 0.00 | 0.02 | 0.02 | 42 | 1008.8 |
| 20260503223043 | 68 | 80 | 5.0 | 10.0 | 0.00 | 0.02 | 0.02 | 46 | 1008.8 |
| 20260503222523 | 67 | 91 | 5.0 | 11.0 | 0.00 | 0.02 | 0.02 | 45 | 1008.9 |
| 20260503222026 | 67 | 54 | 6.0 | 11.0 | 0.00 | 0.02 | 0.02 | 44 | 1009.0 |
| 20260503221551 | 67 | 54 | 5.0 | 11.0 | 0.00 | 0.02 | 0.02 | 41 | 1009.1 |
| 20260503221026 | 68 | 100 | 5.0 | 12.0 | 0.00 | 0.02 | 0.02 | 46 | 1009.2 |
| 20260503220528 | 67 | 53 | 5.0 | 12.0 | 0.00 | 0.02 | 0.02 | 44 | 1009.2 |
| 20260503220040 | 67 | 55 | 6.0 | 14.0 | 0.00 | 0.02 | 0.02 | 43 | 1009.4 |
| 20260503215524 | 67 | 49 | 5.0 | 14.0 | 0.00 | 0.02 | 0.02 | 42 | 1009.4 |
| 20260503215024 | 67 | 64 | 3.0 | 11.0 | 0.00 | 0.02 | 0.02 | 43 | 1009.5 |
| 20260503214537 | 67 | 57 | 4.0 | 11.0 | 0.00 | 0.02 | 0.02 | 49 | 1009.7 |
| 20260503214027 | 67 | 50 | 3.0 | 12.0 | 0.00 | 0.02 | 0.02 | 45 | 1009.7 |
| 20260503213524 | 67 | 65 | 3.0 | 12.0 | 0.00 | 0.02 | 0.02 | 43 | 1009.9 |
| 20260503213037 | 67 | 88 | 6.0 | 12.0 | 0.00 | 0.02 | 0.02 | 43 | 1010.1 |
| 20260503212527 | 67 | 61 | 2.0 | 11.0 | 0.00 | 0.02 | 0.02 | 45 | 1010.1 |
| 20260503212027 | 67 | 34 | 3.0 | 11.0 | 0.00 | 0.02 | 0.02 | 45 | 1010.3 |
| 20260503211545 | 67 | 340 | 3.0 | 11.0 | 0.00 | 0.02 | 0.02 | 43 | 1010.3 |
| 20260503211029 | 67 | 55 | 5.0 | 13.0 | 0.00 | 0.02 | 0.02 | 44 | 1010.6 |
| 20260503210531 | 67 | 321 | 2.0 | 13.0 | 0.00 | 0.02 | 0.02 | 48 | 1010.7 |
| 20260503210041 | 67 | 345 | 5.0 | 12.0 | 0.00 | 0.02 | 0.02 | 44 | 1010.7 |
| 20260503205524 | 66 | 30 | 3.0 | 17.0 | 0.00 | 0.02 | 0.02 | 48 | 1010.7 |
| 20260503205025 | 66 | 92 | 8.0 | 17.0 | 0.00 | 0.02 | 0.02 | 46 | 1011.0 |
| 20260503204542 | 65 | 65 | 11.0 | 17.0 | 0.00 | 0.02 | 0.02 | 47 | 1011.0 |
| 20260503204027 | 63 | 63 | 7.0 | 14.0 | 0.00 | 0.02 | 0.02 | 44 | 1011.1 |
| 20260503203528 | 64 | 51 | 8.0 | 14.0 | 0.00 | 0.02 | 0.02 | 42 | 1011.2 |
| 20260503203038 | 64 | 85 | 7.0 | 15.0 | 0.00 | 0.02 | 0.02 | 45 | 1011.0 |
| 20260503202524 | 64 | 91 | 6.0 | 15.0 | 0.00 | 0.02 | 0.02 | 44 | 1011.1 |
| 20260503202024 | 66 | 66 | 9.0 | 15.0 | 0.00 | 0.02 | 0.02 | 42 | 1011.2 |
| 20260503201537 | 65 | 54 | 4.0 | 10.0 | 0.00 | 0.02 | 0.02 | 45 | 1011.2 |
| 20260503201025 | 66 | 88 | 4.0 | 14.0 | 0.00 | 0.02 | 0.02 | 41 | 1011.3 |
| 20260503200524 | 65 | 88 | 5.0 | 15.0 | 0.00 | 0.02 | 0.02 | 52 | 1011.4 |
| 20260503200037 | 65 | 49 | 9.0 | 15.0 | 0.00 | 0.02 | 0.02 | 46 | 1011.3 |
| 20260503195523 | 66 | 45 | 5.0 | 14.0 | 0.00 | 0.02 | 0.02 | 45 | 1011.3 |
| 20260503195030 | 66 | 51 | 5.0 | 14.0 | 0.00 | 0.02 | 0.02 | 46 | 1011.4 |
| 20260503194542 | 66 | 42 | 8.0 | 14.0 | 0.00 | 0.02 | 0.02 | 44 | 1011.5 |
| 20260503194027 | 66 | 49 | 4.0 | 13.0 | 0.00 | 0.02 | 0.02 | 46 | 1011.5 |
| 20260503193526 | 66 | 100 | 8.0 | 13.0 | 0.00 | 0.02 | 0.02 | 47 | 1011.5 |
| 20260503193044 | 65 | 102 | 6.0 | 10.0 | 0.00 | 0.02 | 0.02 | 45 | 1011.6 |
| 20260503192524 | 65 | 111 | 5.0 | 13.0 | 0.00 | 0.02 | 0.02 | 45 | 1011.6 |
| 20260503192026 | 65 | 46 | 4.0 | 13.0 | 0.00 | 0.02 | 0.02 | 46 | 1011.7 |
| 20260503191538 | 65 | 36 | 8.0 | 13.0 | 0.00 | 0.02 | 0.02 | 44 | 1011.8 |
| 20260503191027 | 65 | 74 | 4.0 | 10.0 | 0.00 | 0.02 | 0.02 | 51 | 1012.0 |
| 20260503190524 | 64 | 132 | 5.0 | 10.0 | 0.00 | 0.02 | 0.02 | 44 | 1012.0 |
| 20260503190041 | 64 | 75 | 3.0 | 11.0 | 0.00 | 0.02 | 0.02 | 44 | 1012.0 |
| 20260503185527 | 65 | 96 | 6.0 | 11.0 | 0.00 | 0.02 | 0.02 | 47 | 1012.1 |
| 20260503185024 | 64 | 0 | 0.0 | 10.0 | 0.00 | 0.02 | 0.02 | 42 | 1012.2 |
| 20260503184545 | 64 | 27 | 5.0 | 10.0 | 0.00 | 0.02 | 0.02 | 48 | 1012.3 |
| 20260503184026 | 64 | 0 | 2.0 | 7.0 | 0.00 | 0.02 | 0.02 | 44 | 1012.3 |
| 20260503183525 | 64 | 0 | 2.0 | 9.0 | 0.00 | 0.02 | 0.02 | 41 | 1012.4 |
| 20260503183053 | 64 | 51 | 4.0 | 9.0 | 0.00 | 0.02 | 0.02 | 42 | 1012.3 |
| 20260503182524 | 64 | 28 | 1.0 | 9.0 | 0.00 | 0.02 | 0.02 | 45 | 1012.5 |
| 20260503182027 | 64 | 38 | 2.0 | 7.0 | 0.00 | 0.02 | 0.02 | 48 | 1012.7 |
| 20260503181549 | 64 | 46 | 1.0 | 13.0 | 0.00 | 0.02 | 0.02 | 44 | 1012.7 |
| 20260503181024 | 64 | 33 | 2.0 | 13.0 | 0.00 | 0.02 | 0.02 | 51 | 1012.9 |
| 20260503180524 | 64 | 104 | 1.0 | 4.0 | 0.00 | 0.02 | 0.02 | 47 | 1012.9 |
| 20260503180038 | 64 | 62 | 1.0 | 4.0 | 0.00 | 0.02 | 0.02 | 47 | 1013.0 |
| 20260503175525 | 64 | 325 | 2.0 | 4.0 | 0.00 | 0.02 | 0.02 | 47 | 1013.0 |
| 20260503175025 | 63 | 0 | 1.0 | 7.0 | 0.00 | 0.02 | 0.02 | 51 | 1013.0 |
| 20260503174544 | 63 | 191 | 1.0 | 7.0 | 0.00 | 0.02 | 0.02 | 49 | 1013.0 |
| 20260503174028 | 62 | 0 | 0.0 | 7.0 | 0.00 | 0.02 | 0.02 | 50 | 1013.1 |
| 20260503173524 | 62 | 257 | 2.0 | 7.0 | 0.00 | 0.02 | 0.02 | 55 | 1013.2 |
| 20260503173047 | 61 | 247 | 2.0 | 6.0 | 0.00 | 0.02 | 0.02 | 53 | 1013.3 |
| 20260503172531 | 61 | 265 | 2.0 | 6.0 | 0.00 | 0.02 | 0.02 | 56 | 1013.3 |
| 20260503172029 | 60 | 223 | 3.0 | 7.0 | 0.01 | 0.02 | 0.02 | 54 | 1013.3 |
| 20260503171539 | 59 | 254 | 0.0 | 7.0 | 0.02 | 0.02 | 0.02 | 60 | 1013.3 |
| 20260503171025 | 59 | 253 | 2.0 | 6.0 | 0.02 | 0.02 | 0.02 | 55 | 1013.3 |
| 20260503170525 | 58 | 294 | 1.0 | 4.0 | 0.02 | 0.02 | 0.02 | 57 | 1013.3 |
| 20260503150527 | 56 | 281 | 5.0 | 10.0 | 0.00 | 0.00 | 0.00 | 56 | 1013.8 |
| 20260503131033 | 47 | 360 | 5.0 | 11.0 | 0.00 | 0.00 | 0.00 | 70 | 1014.7 |
| 20260503130527 | 46 | 282 | 7.0 | 11.0 | 0.00 | 0.00 | 0.00 | 71 | 1014.6 |
| 20260503110533 | 40 | 228 | 4.0 | 7.0 | 0.00 | 0.00 | 0.00 | 83 | 1015.2 |
| 20260503081542 | 41 | 237 | 1.0 | 3.0 | 0.00 | 0.00 | 0.00 | 81 | 1015.7 |
| 20260503081028 | 42 | 0 | 0.0 | 0.0 | 0.00 | 0.00 | 0.00 | 81 | 1015.8 |
| 20260503080528 | 42 | 0 | 0.0 | 0.0 | 0.00 | 0.00 | 0.00 | 80 | 1015.7 |
| 20260503072528 | 43 | 0 | 1.0 | 4.0 | 0.00 | 0.00 | 0.00 | 78 | 1015.3 |
| 20260503072028 | 43 | 139 | 1.0 | 5.0 | 0.00 | 0.00 | 0.00 | 78 | 1015.3 |
| 20260503071538 | 43 | 0 | 1.0 | 5.0 | 0.00 | 0.00 | 0.00 | 78 | 1015.2 |
| 20260503071028 | 43 | 136 | 2.0 | 5.0 | 0.00 | 0.00 | 0.00 | 78 | 1015.2 |
| 20260503070528 | 42 | 0 | 0.0 | 5.0 | 0.00 | 0.00 | 0.00 | 79 | 1015.2 |
| 20260503055027 | 41 | 0 | 0.0 | 2.0 | 0.00 | 0.00 | 0.00 | 77 | 1015.8 |
| 20260503054542 | 41 | 0 | 0.0 | 4.0 | 0.00 | 0.00 | 0.00 | 78 | 1015.8 |
| 20260503054029 | 41 | 0 | 0.0 | 4.0 | 0.00 | 0.00 | 0.00 | 77 | 1015.8 |
| 20260503053528 | 41 | 360 | 1.0 | 4.0 | 0.00 | 0.00 | 0.00 | 77 | 1015.7 |
| 20260503053036 | 42 | 0 | 0.0 | 5.0 | 0.00 | 0.00 | 0.00 | 77 | 1015.8 |
| 20260503052529 | 42 | 0 | 1.0 | 5.0 | 0.00 | 0.00 | 0.00 | 77 | 1015.7 |
| 20260503052029 | 41 | 207 | 2.0 | 4.0 | 0.00 | 0.00 | 0.00 | 79 | 1015.6 |
| 20260503051544 | 40 | 207 | 1.0 | 4.0 | 0.00 | 0.00 | 0.00 | 79 | 1015.7 |
| 20260503051027 | 41 | 207 | 1.0 | 5.0 | 0.00 | 0.00 | 0.00 | 77 | 1015.7 |
| 20260503050528 | 41 | 207 | 0.0 | 5.0 | 0.00 | 0.00 | 0.00 | 78 | 1015.6 |
| 20260503050040 | 41 | 207 | 2.0 | 5.0 | 0.00 | 0.00 | 0.00 | 79 | 1015.7 |
| 20260503045528 | 41 | 190 | 2.0 | 3.0 | 0.00 | 0.00 | 0.00 | 80 | 1015.8 |
| 20260503045031 | 40 | 189 | 2.0 | 3.0 | 0.00 | 0.00 | 0.00 | 80 | 1015.8 |
| 20260503044542 | 40 | 188 | 0.0 | 3.0 | 0.00 | 0.00 | 0.00 | 80 | 1015.9 |
| 20260503044028 | 40 | 188 | 1.0 | 3.0 | 0.00 | 0.00 | 0.00 | 81 | 1016.0 |
| 20260503043528 | 40 | 360 | 1.0 | 4.0 | 0.00 | 0.00 | 0.00 | 79 | 1015.9 |
| 20260503043042 | 40 | 0 | 1.0 | 4.0 | 0.00 | 0.00 | 0.00 | 80 | 1015.8 |
| 20260503042528 | 40 | 188 | 1.0 | 3.0 | 0.00 | 0.00 | 0.00 | 80 | 1015.8 |
| 20260503042028 | 40 | 188 | 2.0 | 3.0 | 0.00 | 0.00 | 0.00 | 79 | 1015.8 |
| 20260503041543 | 40 | 0 | 0.0 | 2.0 | 0.00 | 0.00 | 0.00 | 77 | 1015.6 |
| 20260503041031 | 41 | 188 | 0.0 | 0.0 | 0.00 | 0.00 | 0.00 | 76 | 1015.5 |
| 20260503040527 | 41 | 0 | 0.0 | 4.0 | 0.00 | 0.00 | 0.00 | 75 | 1015.6 |
| 20260503040043 | 42 | 0 | 0.0 | 5.0 | 0.00 | 0.00 | 0.00 | 75 | 1015.6 |
| 20260503035528 | 42 | 188 | 2.0 | 6.0 | 0.00 | 0.00 | 0.00 | 76 | 1015.5 |
| 20260503035028 | 41 | 173 | 3.0 | 6.0 | 0.00 | 0.00 | 0.00 | 77 | 1015.3 |
| 20260503034539 | 41 | 173 | 2.0 | 5.0 | 0.00 | 0.00 | 0.00 | 78 | 1015.3 |
| 20260503034028 | 41 | 172 | 1.0 | 2.0 | 0.00 | 0.00 | 0.00 | 76 | 1015.3 |
| 20260503033527 | 42 | 360 | 0.0 | 3.0 | 0.00 | 0.00 | 0.00 | 75 | 1015.2 |
| 20260503033046 | 43 | 0 | 0.0 | 5.0 | 0.00 | 0.00 | 0.00 | 74 | 1015.3 |
| 20260503032528 | 43 | 0 | 1.0 | 5.0 | 0.00 | 0.00 | 0.00 | 74 | 1015.2 |
| 20260503032028 | 43 | 172 | 3.0 | 5.0 | 0.00 | 0.00 | 0.00 | 74 | 1015.2 |
| 20260503031539 | 44 | 167 | 2.0 | 4.0 | 0.00 | 0.00 | 0.00 | 73 | 1015.2 |
| 20260503031029 | 44 | 167 | 0.0 | 3.0 | 0.00 | 0.00 | 0.00 | 72 | 1015.2 |
| 20260503030529 | 44 | 0 | 0.0 | 0.0 | 0.00 | 0.00 | 0.00 | 72 | 1015.2 |
| 20260503030037 | 45 | 0 | 0.0 | 4.0 | 0.00 | 0.00 | 0.00 | 71 | 1015.1 |
| 20260503025528 | 46 | 0 | 1.0 | 4.0 | 0.00 | 0.00 | 0.00 | 70 | 1015.1 |
| 20260503025029 | 47 | 167 | 1.0 | 4.0 | 0.00 | 0.00 | 0.00 | 68 | 1015.0 |
| 20260503024540 | 47 | 360 | 2.0 | 4.0 | 0.00 | 0.00 | 0.00 | 67 | 1014.9 |
| 20260503024028 | 48 | 167 | 1.0 | 4.0 | 0.00 | 0.00 | 0.00 | 66 | 1014.9 |
| 20260503023527 | 49 | 84 | 0.0 | 3.0 | 0.00 | 0.00 | 0.00 | 63 | 1014.6 |
| 20260503023038 | 50 | 0 | 0.0 | 0.0 | 0.00 | 0.00 | 0.00 | 61 | 1014.7 |
| 20260503022527 | 51 | 0 | 0.0 | 0.0 | 0.00 | 0.00 | 0.00 | 60 | 1014.7 |
| 20260503022036 | 52 | 0 | 0.0 | 0.0 | 0.00 | 0.00 | 0.00 | 60 | 1014.7 |
| 20260503021538 | 53 | 0 | 0.0 | 0.0 | 0.00 | 0.00 | 0.00 | 58 | 1014.5 |
| 20260503021030 | 54 | 0 | 0.0 | 0.0 | 0.00 | 0.00 | 0.00 | 58 | 1014.5 |
| 20260503020527 | 55 | 0 | 0.0 | 0.0 | 0.00 | 0.00 | 0.00 | 56 | 1014.5 |
| 20260503020038 | 56 | 0 | 0.0 | 0.0 | 0.00 | 0.00 | 0.00 | 55 | 1014.4 |
| 20260503015528 | 57 | 0 | 0.0 | 0.0 | 0.00 | 0.00 | 0.00 | 52 | 1014.4 |
| 20260503015027 | 58 | 0 | 0.0 | 0.0 | 0.00 | 0.00 | 0.00 | 51 | 1014.4 |
| 20260503014536 | 58 | 0 | 0.0 | 0.0 | 0.00 | 0.00 | 0.00 | 51 | 1014.4 |
| 20260503014026 | 59 | 0 | 0.0 | 2.0 | 0.00 | 0.00 | 0.00 | 50 | 1014.3 |
| 20260503013529 | 59 | 0 | 0.0 | 2.0 | 0.00 | 0.00 | 0.00 | 48 | 1014.3 |
| 20260503013051 | 60 | 87 | 0.0 | 3.0 | 0.00 | 0.00 | 0.00 | 48 | 1014.3 |
| 20260503012528 | 60 | 86 | 0.0 | 3.0 | 0.00 | 0.00 | 0.00 | 47 | 1014.1 |
| 20260503012027 | 61 | 87 | 1.0 | 3.0 | 0.00 | 0.00 | 0.00 | 48 | 1014.1 |
| 20260503011543 | 62 | 360 | 1.0 | 3.0 | 0.00 | 0.00 | 0.00 | 49 | 1014.1 |
| 20260503011030 | 62 | 86 | 1.0 | 3.0 | 0.00 | 0.00 | 0.00 | 45 | 1014.1 |
| 20260503010529 | 62 | 88 | 0.0 | 2.0 | 0.00 | 0.00 | 0.00 | 44 | 1014.2 |
| 20260503010051 | 62 | 360 | 0.0 | 3.0 | 0.00 | 0.00 | 0.00 | 44 | 1014.1 |